Location: Newark
(52.1858°N, 3.9161°W)
Time: 16:57:43
(UTC+00:00)

Starlink (trailer) - Visible Passes

Search period start: 22 July 2019 00:00
Search period end: 01 August 2019 00:00
Orbit: 548 x 551 km, 53.0° (Epoch: 22 July)

Date Brightness Start Highest point End Pass type
(mag) Time Alt. Az. Time Alt. Az. Time Alt. Az.
22 Jul 5.2 00:39:00 20° SE 00:39:00 20° SE 00:41:33 10° E visible
22 Jul 3.6 02:14:37 19° SW 02:17:30 65° SSE 02:21:38 10° ENE visible
23 Jul 4.9 00:33:22 25° SE 00:33:22 25° SE 00:36:20 10° E visible
23 Jul 3.5 02:08:59 17° WSW 02:12:05 75° SSE 02:16:14 10° ENE visible
24 Jul 4.5 00:27:41 31° SE 00:27:41 31° SE 00:31:04 10° E visible
24 Jul 3.5 02:03:18 15° WSW 02:06:40 83° SSE 02:10:50 10° ENE visible
24 Jul 3.8 03:42:11 10° W 03:46:21 80° N 03:50:31 10° E visible
25 Jul 4.2 00:21:56 38° SE 00:21:56 38° SE 00:25:44 10° E visible
25 Jul 3.6 01:57:32 13° WSW 02:01:15 90° NNW 02:05:26 10° ENE visible
25 Jul 3.7 03:36:47 10° W 03:40:57 84° N 03:45:07 10° E visible
26 Jul 3.8 00:16:05 44° SSE 00:16:24 45° SSE 00:20:23 10° ENE visible
26 Jul 3.6 01:51:42 10° W 01:55:51 84° N 02:00:02 10° E visible
26 Jul 3.7 03:31:23 10° WNW 03:35:34 89° N 03:39:43 10° ESE visible
26 Jul 5.9 22:34:28 10° E 22:34:28 10° E 22:34:34 10° E visible
27 Jul 3.7 00:10:03 44° SSW 00:10:56 54° SSE 00:14:59 10° ENE visible
27 Jul 3.7 01:46:18 10° W 01:50:28 80° N 01:54:38 10° E visible
27 Jul 3.6 03:25:59 10° WNW 03:30:09 84° SSW 03:34:19 10° ESE visible
27 Jul 5.4 22:28:08 16° ESE 22:28:08 16° ESE 22:29:29 10° E visible
28 Jul 3.5 00:03:42 32° SW 00:05:29 64° SSE 00:09:36 10° ENE visible
28 Jul 3.7 01:40:55 10° W 01:45:05 78° N 01:49:15 10° E visible
28 Jul 3.6 03:20:35 10° WNW 03:24:44 75° SSW 03:28:53 10° ESE visible
28 Jul 4.6 22:20:55 25° SE 22:20:55 25° SE 22:24:18 10° E visible
28 Jul 3.5 23:56:21 13° WSW 00:00:02 73° SSE 00:04:12 10° ENE visible
29 Jul 3.7 01:35:32 10° W 01:39:41 78° N 01:43:51 10° E visible
29 Jul 3.6 03:15:11 10° WNW 03:19:18 65° SSW 03:23:25 10° ESE visible
29 Jul 4.4 22:11:43 10° SSW 22:15:22 30° SE 22:19:00 10° E visible
29 Jul 3.5 23:50:27 10° WSW 23:54:37 82° SSE 23:58:47 10° ENE visible
30 Jul 3.7 01:30:08 10° W 01:34:18 80° N 01:38:28 10° E visible
30 Jul 3.7 03:09:46 10° WNW 03:13:51 56° SSW 03:17:55 10° SE visible
30 Jul 4.1 22:06:01 10° SW 22:09:51 36° SSE 22:13:41 10° E visible
30 Jul 3.5 23:45:02 10° WSW 23:49:12 89° S 23:53:23 10° ENE visible
31 Jul 3.6 01:24:44 10° W 01:28:54 83° N 01:33:04 10° E visible
31 Jul 3.8 03:04:23 10° WNW 03:08:23 47° SSW 03:12:22 10° SE visible
31 Jul 3.9 22:00:24 10° SW 22:04:21 44° SSE 22:08:19 10° ENE visible
31 Jul 3.6 23:39:37 10° W 23:43:48 85° N 23:47:58 10° E visible
